UKV183 EGLL-LFPG

Flight info

Callsign UKV183
Flight time 0h 41m
Altitude 18000
Route MODMI M185 MID/N0401F250 UL612 BOGNA DCT HARDY UM605 BIBAX
Aircraft B738/M-SDE2E3FGIRWY/LB1

Departure

Time 2026-05-09 07:46
Airport London Heathrow Airport (EGLL)

Arrival

Time 2026-05-09 08:28
Airport Charles de Gaulle International Airport (LFPG)
Time Latitude Longitude Altitude Speed Heading
2026-05-09 07:24 51.46927 -0.48647 89 ft 0 kts 360°
2026-05-09 07:39 51.46918 -0.48647 90 ft 4 kts 360°
2026-05-09 07:39 51.46896 -0.48647 87 ft 4 kts 357°
2026-05-09 07:39 51.46878 -0.48635 86 ft 4 kts 281°
2026-05-09 07:40 51.46877 -0.48595 85 ft 4 kts 270°
2026-05-09 07:40 51.46877 -0.48587 85 ft 1 kts 270°
2026-05-09 07:43 51.46877 -0.48654 88 ft 10 kts 270°
2026-05-09 07:44 51.46861 -0.48741 88 ft 9 kts 209°
2026-05-09 07:44 51.46802 -0.48750 85 ft 9 kts 180°
2026-05-09 07:44 51.46743 -0.48749 85 ft 8 kts 180°
2026-05-09 07:44 51.46685 -0.48749 85 ft 9 kts 180°
2026-05-09 07:45 51.46625 -0.48755 87 ft 9 kts 195°
2026-05-09 07:45 51.46600 -0.48768 87 ft 3 kts 197°
2026-05-09 07:45 51.46574 -0.48781 86 ft 5 kts 198°
2026-05-09 07:45 51.46520 -0.48778 87 ft 11 kts 156°
2026-05-09 07:46 51.46480 -0.48669 86 ft 13 kts 92°
2026-05-09 07:46 51.46481 -0.48192 87 ft 90 kts 89°
2026-05-09 07:46 51.46488 -0.46701 229 ft 164 kts 88°
2026-05-09 07:46 51.46507 -0.44801 1230 ft 184 kts 89°
2026-05-09 07:47 51.46548 -0.42797 2695 ft 174 kts 89°
2026-05-09 07:47 51.46409 -0.40735 3348 ft 206 kts 110°
2026-05-09 07:47 51.45533 -0.38614 3411 ft 253 kts 132°
2026-05-09 07:47 51.44031 -0.36996 4180 ft 266 kts 158°
2026-05-09 07:48 51.42288 -0.36089 5383 ft 260 kts 160°
2026-05-09 07:48 51.40507 -0.35454 6172 ft 263 kts 176°
2026-05-09 07:48 51.38634 -0.35698 6188 ft 277 kts 191°
2026-05-09 07:48 51.36910 -0.37007 6201 ft 275 kts 219°
2026-05-09 07:49 51.35780 -0.39466 6495 ft 280 kts 246°
2026-05-09 07:49 51.35099 -0.42385 7474 ft 280 kts 250°
2026-05-09 07:49 51.34486 -0.45314 8627 ft 275 kts 250°
2026-05-09 07:49 51.33876 -0.48235 9644 ft 277 kts 251°
2026-05-09 07:50 51.33014 -0.50990 10531 ft 280 kts 230°
2026-05-09 07:50 51.31493 -0.52900 11293 ft 287 kts 204°
2026-05-09 07:50 51.29512 -0.53566 12169 ft 293 kts 179°
2026-05-09 07:50 51.27480 -0.53043 12984 ft 300 kts 168°
2026-05-09 07:51 51.25435 -0.52194 13820 ft 306 kts 166°
2026-05-09 07:51 51.23370 -0.51286 14604 ft 309 kts 166°
2026-05-09 07:51 51.21296 -0.50368 15478 ft 309 kts 165°
2026-05-09 07:51 51.19238 -0.49460 16306 ft 311 kts 165°
2026-05-09 07:52 51.17140 -0.48547 17083 ft 314 kts 166°
2026-05-09 07:52 51.15020 -0.47630 17789 ft 315 kts 166°
2026-05-09 07:52 51.12907 -0.46724 18119 ft 316 kts 166°
2026-05-09 07:52 51.10713 -0.45791 18148 ft 339 kts 165°
2026-05-09 07:53 51.08361 -0.44699 18155 ft 365 kts 163°
2026-05-09 07:53 51.05875 -0.43467 18137 ft 375 kts 163°
2026-05-09 07:53 51.03384 -0.42212 18139 ft 377 kts 163°
2026-05-09 07:53 51.00875 -0.40943 18104 ft 379 kts 163°
2026-05-09 07:54 50.98365 -0.39669 18111 ft 379 kts 163°
2026-05-09 07:54 50.95849 -0.38390 18127 ft 379 kts 163°
2026-05-09 07:54 50.93344 -0.37112 18105 ft 378 kts 163°
2026-05-09 07:54 50.90847 -0.35843 18126 ft 377 kts 162°
2026-05-09 07:55 50.88384 -0.34592 18113 ft 376 kts 163°
2026-05-09 07:55 50.85859 -0.33536 18096 ft 374 kts 175°
2026-05-09 07:55 50.83268 -0.33597 18134 ft 373 kts 180°
2026-05-09 07:55 50.80686 -0.33194 18137 ft 373 kts 174°
2026-05-09 07:56 50.78100 -0.32630 18299 ft 379 kts 165°
2026-05-09 07:56 50.75678 -0.31001 19074 ft 379 kts 152°
2026-05-09 07:56 50.73432 -0.28822 19800 ft 380 kts 147°
2026-05-09 07:56 50.71343 -0.26237 20392 ft 385 kts 136°
2026-05-09 07:57 50.69625 -0.22947 21041 ft 389 kts 126°
2026-05-09 07:57 50.68268 -0.19244 21681 ft 393 kts 118°
2026-05-09 07:57 50.67078 -0.15334 22292 ft 396 kts 118°
2026-05-09 07:57 50.65892 -0.11392 22870 ft 399 kts 118°
2026-05-09 07:58 50.64695 -0.07427 23458 ft 402 kts 118°
2026-05-09 07:58 50.63484 -0.03446 23993 ft 404 kts 118°
2026-05-09 07:58 50.62264 0.00536 24064 ft 401 kts 118°
2026-05-09 07:58 50.61076 0.04393 24095 ft 393 kts 119°
2026-05-09 07:59 50.59888 0.08235 24097 ft 390 kts 119°
2026-05-09 07:59 50.58696 0.12070 24111 ft 391 kts 119°
2026-05-09 07:59 50.57499 0.15915 24117 ft 391 kts 119°
2026-05-09 07:59 50.56299 0.19761 24115 ft 392 kts 119°
2026-05-09 08:00 50.55099 0.23608 24116 ft 392 kts 119°
2026-05-09 08:00 50.53895 0.27458 24113 ft 392 kts 119°
2026-05-09 08:00 50.52691 0.31307 24109 ft 392 kts 119°
2026-05-09 08:00 50.51487 0.35153 24108 ft 392 kts 119°
2026-05-09 08:01 50.50281 0.38995 24103 ft 392 kts 119°
2026-05-09 08:01 50.49076 0.42827 24102 ft 391 kts 119°
2026-05-09 08:01 50.47801 0.46588 24084 ft 389 kts 126°
2026-05-09 08:01 50.46175 0.49953 24097 ft 386 kts 134°
2026-05-09 08:02 50.44241 0.52853 24100 ft 384 kts 143°
2026-05-09 08:02 50.42152 0.55443 24115 ft 384 kts 144°
2026-05-09 08:02 50.40044 0.58033 24102 ft 384 kts 143°
2026-05-09 08:02 50.37946 0.60644 24103 ft 384 kts 143°
2026-05-09 08:03 50.35859 0.63261 24104 ft 384 kts 143°
2026-05-09 08:03 50.33803 0.65848 24102 ft 384 kts 143°
2026-05-09 08:03 50.31721 0.68469 24096 ft 384 kts 143°
2026-05-09 08:03 50.29640 0.71087 24099 ft 384 kts 143°
2026-05-09 08:04 50.27533 0.73735 24100 ft 383 kts 143°
2026-05-09 08:04 50.25483 0.76307 24100 ft 383 kts 143°
2026-05-09 08:04 50.23404 0.78914 24098 ft 383 kts 143°
2026-05-09 08:04 50.21324 0.81518 24098 ft 383 kts 143°
2026-05-09 08:05 50.19244 0.84117 24102 ft 383 kts 143°
2026-05-09 08:05 50.17163 0.86711 24094 ft 383 kts 143°
2026-05-09 08:05 50.15080 0.89299 24095 ft 383 kts 143°
2026-05-09 08:05 50.12995 0.91885 24075 ft 383 kts 143°
2026-05-09 08:06 50.10912 0.94470 24082 ft 383 kts 143°
2026-05-09 08:06 50.08826 0.97053 24096 ft 383 kts 143°
2026-05-09 08:06 50.06743 0.99630 24100 ft 383 kts 143°
2026-05-09 08:06 50.04573 1.01972 23934 ft 374 kts 152°
2026-05-09 08:07 50.02262 1.03804 23429 ft 372 kts 155°
2026-05-09 08:07 49.99905 1.05517 22681 ft 374 kts 156°
2026-05-09 08:07 49.97533 1.07211 21975 ft 376 kts 156°
2026-05-09 08:07 49.95164 1.08915 21386 ft 374 kts 156°
2026-05-09 08:08 49.92816 1.10627 20864 ft 372 kts 155°
2026-05-09 08:08 49.90486 1.12344 20336 ft 369 kts 155°
2026-05-09 08:08 49.88176 1.14059 19833 ft 368 kts 155°
2026-05-09 08:08 49.85899 1.15756 19314 ft 366 kts 155°
2026-05-09 08:09 49.83606 1.17467 18819 ft 365 kts 155°
2026-05-09 08:09 49.81320 1.19173 18315 ft 364 kts 155°
2026-05-09 08:09 49.79045 1.20872 17790 ft 362 kts 155°
2026-05-09 08:09 49.76777 1.22562 17283 ft 360 kts 155°
2026-05-09 08:10 49.74530 1.24237 16785 ft 357 kts 156°
2026-05-09 08:10 49.72301 1.25896 16300 ft 355 kts 156°
2026-05-09 08:10 49.70077 1.27548 15828 ft 352 kts 156°
2026-05-09 08:10 49.67876 1.29183 15341 ft 351 kts 156°
2026-05-09 08:11 49.65683 1.30810 14888 ft 349 kts 156°
2026-05-09 08:11 49.63497 1.32429 14430 ft 347 kts 156°
2026-05-09 08:11 49.61324 1.34038 13964 ft 346 kts 156°
2026-05-09 08:11 49.59161 1.35636 13464 ft 344 kts 156°
2026-05-09 08:12 49.54872 1.38802 13079 ft 347 kts 156°
2026-05-09 08:12 49.52699 1.40405 13063 ft 344 kts 156°
2026-05-09 08:12 49.50556 1.41985 13029 ft 338 kts 156°
2026-05-09 08:13 49.48445 1.43539 12739 ft 334 kts 156°
2026-05-09 08:13 49.46351 1.45080 12269 ft 333 kts 156°
2026-05-09 08:13 49.44255 1.46619 11736 ft 334 kts 156°
2026-05-09 08:13 49.42181 1.48141 11551 ft 324 kts 156°
2026-05-09 08:14 49.40185 1.49607 11454 ft 312 kts 156°
2026-05-09 08:14 49.38267 1.51015 11385 ft 300 kts 156°
2026-05-09 08:14 49.36408 1.52375 11261 ft 291 kts 157°
2026-05-09 08:14 49.34600 1.53695 11115 ft 293 kts 157°
2026-05-09 08:15 49.32755 1.55041 11069 ft 293 kts 156°
2026-05-09 08:15 49.31038 1.56774 11074 ft 303 kts 135°
2026-05-09 08:15 49.29975 1.59554 11059 ft 304 kts 109°
2026-05-09 08:15 49.29665 1.62747 11069 ft 303 kts 95°
2026-05-09 08:16 49.29555 1.65968 11058 ft 301 kts 94°
2026-05-09 08:16 49.29441 1.69177 11067 ft 303 kts 95°
2026-05-09 08:16 49.29311 1.72403 11059 ft 304 kts 95°
2026-05-09 08:16 49.28868 1.75540 11034 ft 300 kts 118°
2026-05-09 08:17 49.27666 1.78074 10959 ft 292 kts 136°
2026-05-09 08:17 49.26225 1.80234 10663 ft 289 kts 139°
2026-05-09 08:17 49.24754 1.82355 10299 ft 291 kts 139°
2026-05-09 08:17 49.23279 1.84474 9962 ft 291 kts 139°
2026-05-09 08:18 49.21837 1.86554 9580 ft 286 kts 139°
2026-05-09 08:18 49.20397 1.88641 9089 ft 285 kts 139°
2026-05-09 08:18 49.18963 1.90725 8600 ft 283 kts 139°
2026-05-09 08:18 49.17547 1.92785 8177 ft 280 kts 139°
2026-05-09 08:19 49.16142 1.94835 7741 ft 278 kts 138°
2026-05-09 08:19 49.14752 1.96865 7289 ft 274 kts 138°
2026-05-09 08:19 49.13377 1.98868 6810 ft 272 kts 138°
2026-05-09 08:19 49.12011 2.00857 6320 ft 269 kts 138°
2026-05-09 08:20 49.10660 2.02823 5847 ft 266 kts 138°
2026-05-09 08:20 49.09334 2.04756 5348 ft 263 kts 138°
2026-05-09 08:20 49.08014 2.06675 4920 ft 261 kts 137°
2026-05-09 08:20 49.06724 2.08551 4567 ft 254 kts 137°
2026-05-09 08:21 49.05427 2.10434 4124 ft 258 kts 136°
2026-05-09 08:21 49.04135 2.12312 3990 ft 257 kts 136°
2026-05-09 08:21 49.02846 2.14179 3978 ft 253 kts 136°
2026-05-09 08:21 49.01605 2.15977 3950 ft 238 kts 136°
2026-05-09 08:22 49.00585 2.17808 3920 ft 219 kts 112°
2026-05-09 08:22 49.00514 2.19979 3981 ft 203 kts 74°
2026-05-09 08:22 49.00943 2.21999 3953 ft 199 kts 85°
2026-05-09 08:22 49.00902 2.24027 3964 ft 186 kts 91°
2026-05-09 08:23 49.01067 2.25922 3790 ft 175 kts 84°
2026-05-09 08:23 49.01177 2.27710 3565 ft 164 kts 88°
2026-05-09 08:23 49.01255 2.29373 3357 ft 153 kts 88°
2026-05-09 08:23 49.01330 2.30937 3235 ft 143 kts 89°
2026-05-09 08:24 49.01373 2.32446 3003 ft 139 kts 87°
2026-05-09 08:24 49.01455 2.33909 2798 ft 136 kts 87°
2026-05-09 08:24 49.01534 2.35361 2624 ft 140 kts 86°
2026-05-09 08:24 49.01618 2.36851 2415 ft 143 kts 86°
2026-05-09 08:25 49.01698 2.38326 2243 ft 139 kts 85°
2026-05-09 08:25 49.01751 2.39292 2144 ft 139 kts 85°
2026-05-09 08:25 49.01834 2.40754 1920 ft 136 kts 85°
2026-05-09 08:25 49.01887 2.41703 1805 ft 136 kts 86°
2026-05-09 08:26 49.02021 2.44104 1519 ft 136 kts 86°
2026-05-09 08:26 49.02094 2.45549 1291 ft 137 kts 86°
2026-05-09 08:26 49.02172 2.46973 1144 ft 134 kts 84°
2026-05-09 08:26 49.02240 2.48408 953 ft 138 kts 86°
2026-05-09 08:27 49.02312 2.49904 791 ft 145 kts 83°
2026-05-09 08:27 49.02377 2.50909 612 ft 142 kts 83°
2026-05-09 08:27 49.02467 2.52353 407 ft 134 kts 83°
2026-05-09 08:27 49.02552 2.53685 363 ft 104 kts 86°
2026-05-09 08:28 49.02560 2.54453 351 ft 32 kts 97°
2026-05-09 08:28 49.02523 2.54660 353 ft 29 kts 103°
2026-05-09 08:28 49.02478 2.54945 361 ft 5 kts 105°
2026-05-09 08:28 49.02469 2.54993 359 ft 5 kts 105°
2026-05-09 08:29 49.02467 2.55004 353 ft 1 kts 105°
2026-05-09 08:29 49.02466 2.55010 353 ft 1 kts 105°
2026-05-09 08:29 49.02465 2.55016 353 ft 1 kts 105°
2026-05-09 08:29 49.02459 2.55053 357 ft 7 kts 105°
2026-05-09 08:30 49.02445 2.55153 355 ft 12 kts 98°
2026-05-09 08:30 49.02449 2.55287 353 ft 14 kts 83°
2026-05-09 08:30 49.02460 2.55439 353 ft 15 kts 85°
2026-05-09 08:30 49.02443 2.55582 356 ft 14 kts 133°
2026-05-09 08:31 49.02354 2.55623 353 ft 13 kts 177°
2026-05-09 08:31 49.02264 2.55631 353 ft 13 kts 175°
2026-05-09 08:31 49.02176 2.55643 358 ft 13 kts 174°
2026-05-09 08:31 49.02097 2.55651 353 ft 11 kts 175°
2026-05-09 08:32 49.02026 2.55661 353 ft 10 kts 176°
2026-05-09 08:32 49.01956 2.55670 353 ft 10 kts 175°
2026-05-09 08:32 49.01885 2.55536 355 ft 10 kts 265°
2026-05-09 08:33 49.01880 2.55434 353 ft 10 kts 265°
2026-05-09 08:33 49.01873 2.55321 357 ft 11 kts 265°
2026-05-09 08:33 49.01867 2.55198 358 ft 12 kts 267°
2026-05-09 08:33 49.01861 2.55067 353 ft 13 kts 264°
2026-05-09 08:34 49.01852 2.54930 353 ft 13 kts 265°
2026-05-09 08:34 49.01845 2.54786 359 ft 14 kts 265°
2026-05-09 08:34 49.01836 2.54636 353 ft 15 kts 265°
2026-05-09 08:34 49.01829 2.54479 355 ft 15 kts 265°
2026-05-09 08:35 49.01821 2.54343 353 ft 10 kts 264°
2026-05-09 08:35 49.01815 2.54261 361 ft 7 kts 264°
2026-05-09 08:35 49.01812 2.54185 353 ft 7 kts 266°
2026-05-09 08:35 49.01808 2.54111 355 ft 7 kts 264°
2026-05-09 08:36 49.01803 2.54038 356 ft 7 kts 264°
2026-05-09 08:36 49.01777 2.53977 361 ft 8 kts 198°
2026-05-09 08:36 49.01727 2.53948 360 ft 7 kts 209°
2026-05-09 08:36 49.01685 2.53919 362 ft 7 kts 195°
2026-05-09 08:37 49.01660 2.53910 353 ft 2 kts 192°
2026-05-09 08:37 49.01657 2.53909 358 ft 0 kts 192°